Find Starlink 30885

NORAD ID: 58361 Int'l Des: 2023-177 Owner: SPXS Country: US Constellation: starlink operational
LEOCIRCULAR

現在のビュー

3D地球を読み込み中...

About Starlink 30885

Starlink 30885 (NORAD 58361) is a starlink constellation satellite (v2 mini) launched Nov 18, 2023 by SPXS of US. It operates in LEO, CIRCULAR orbit with a mass of 730.00 kg.

次回通過

Passes for default location (London). Set your location on the main map for personalized predictions.

高度履歴

Loading altitude history...

軌道要素

1 58361U 23177L 26264.22770668 .00001954 00000-0 80532-4 0 9992
2 58361 43.0055 326.2090 0001739 264.8592 95.2062 15.27580408158143
Epoch: Sep 21, 2026 • Age: 6 hours

現在のステータス

高度 494.1 km
遠地点 / 近地点 N/A
速度 7.62 km/s
衛星直下点 -40.27°S, 40.1°E
打ち上げ日 Nov 18, 2023
運用期間 2.8 years
タイプ internet

技術仕様

分類 Payload
質量 730.00 kg
乾燥質量 700.00 kg
長さ 0.30 m
スパン 29.00 m
形状 ? Box + pan
製造者 SPXS
バスタイプ Starlink V2M
フェーズステータス In Orbit
所有者/国 SPXS/US

Most Searched